[[{"header":{"parameterUnit":"m.s-1","parameterCategory":2,"la1":30.2991,"la2":30.254,"lo1":-89.0895,"lo2":-89.0444,"dy":0.0017,"dx":0.0017,"nx":28,"ny":28,"refTime":"2025-06-11T03:00:00:Z","depth":"0","parameterNumber":2,"parameterNumberName":"U-component_of_CURRENTS"},"data":[0,0,0,0,0,0,0,0,0,0,0,0,0,0,0,0,0,0,0,0,0,0,0,0,0,0,0,0,0,0,0,0,0,0,0,0,0,0,0,0,0,0,0,0,0,0,0,0,0,0,0,0,0,0,0,0,0,0,0.1988,0.1988,0,0.2002,0.2002,0.2002,0.1977,0.1976,0.1975,0.1975,0.1994,0.1996,0.1997,0,0,0,0,0,0,0,0,0,0,0,0,0,0.1917,0.1918,0.1988,0.1988,0.1989,0.2002,0.2002,0.2002,0.1977,0.1976,0.1975,0.1974,0.1994,0.1995,0.1997,0,0,0,0,0,0,0,0,0,0,0,0,0,0.194,0.1918,0.1988,0.1979,0.1978,0.2002,0.2002,0.2003,0.1977,0.1976,0.1975,0.1974,0.1994,0.1995,0.1997,0.203,0,0,0.2003,0.2003,0,0,0,0,0,0,0,0,0.1938,0.1942,0.198,0.1979,0.1979,0.1988,0.1985,0.2013,0.1977,0.1976,0.1974,0.1973,0.1995,0.1996,0.1999,0.2031,0.2032,0.2003,0.2004,0.2005,0.2005,0,0,0,0,0,0,0,0.1937,0.1941,0.1992,0.198,0.198,0.1966,0.1968,0.1989,0.199,0.1976,0.1974,0.1979,0.1994,0.1997,0.1999,0.2032,0.2003,0.2004,0.2005,0.2006,0.2158,0.2161,0,0,0,0,0,0,0.1941,0.194,0.1992,0.1993,0.1957,0.1969,0.1971,0.1985,0.199,0.199,0.198,0.1978,0.1995,0.1997,0.2,0.209,0.2005,0.2006,0.2007,0.2155,0.2159,0.2162,0,0,0,0,0,0,0.1939,0.1946,0.1991,0.1967,0.1972,0.1971,0.1987,0.1986,0.1992,0.1993,0.1992,0.1988,0.1994,0.1998,0.2034,0.2088,0.2007,0.2009,0.2152,0.2156,0.216,0.2238,0,0,0,0,0,0,0.1937,0.1945,0.1957,0.1968,0.1974,0.2022,0.1988,0.1987,0.1997,0.1994,0.2,0.2,0.1993,0.2032,0.2036,0.2089,0.201,0.2148,0.2154,0.2159,0.2231,0.2244,0.2255,0,0,0,0,0,0.1935,0.1956,0.1958,0.1964,0.199,0.2024,0.2027,0.202,0.1999,0.2018,0.2019,0.2,0.2071,0.2035,0.204,0.2095,0.2145,0.2152,0.2158,0.2226,0.2242,0.2255,0,0,0,0,0,0,0.1926,0.1956,0.1958,0.1986,0.2012,0.202,0.2033,0.2029,0.2044,0.2036,0.2028,0.203,0.2083,0.2084,0.2045,0.2159,0.211,0.2118,0.216,0.2174,0.2186,0.2248,0.2012,0,0,0,0,0,0.1934,0.1958,0.1985,0.2008,0.2023,0.203,0.204,0.2041,0.2054,0.2057,0.2059,0.2078,0.2117,0.2138,0.2159,0.2219,0.228,0.2263,0.2275,0.2285,0.2341,0.2491,0.2522,0.2184,0.2183,0.2183,0,0,0.1933,0.1955,0.1966,0.2009,0.2022,0.2054,0.2033,0.2058,0.2093,0.206,0.21,0.211,0.2139,0.2203,0.223,0.221,0.2406,0.2293,0.2301,0.2354,0.2501,0.2535,0.2564,0.2188,0.2187,0.2187,0,0,0.1944,0.197,0.1992,0.2022,0.2056,0.2073,0.2085,0.2105,0.2126,0.2167,0.2164,0.2226,0.2245,0.2309,0.2337,0.2438,0.2456,0.2425,0.2545,0.2688,0.2718,0.2745,0.2833,0.2868,0.244,0.244,0.244,0,0.1939,0.1985,0.2004,0.2036,0.2077,0.2086,0.2132,0.2157,0.2185,0.2247,0.2189,0.2315,0.2316,0.2465,0.2491,0.2471,0.2531,0.2478,0.2706,0.2735,0.2761,0.2845,0.2883,0.2445,0.2444,0.2444,0.2443,0,0.1967,0.2012,0.2032,0.2085,0.2127,0.2174,0.222,0.2269,0.2285,0.2329,0.2457,0.2474,0.2572,0.2571,0.2555,0.2754,0.2726,0.2693,0.267,0.28,0.2879,0.2917,0.2451,0.245,0.2448,0.2447,0,0,0.1947,0.2037,0.2044,0.2108,0.2171,0.2222,0.23,0.2419,0.2511,0.2545,0.2687,0.2758,0.279,0.2831,0.2834,0.295,0.3152,0.2905,0.2911,0.2994,0.3446,0.3346,0.3376,0.3155,0.3163,0.3169,0.3414,0,0.1974,0.2071,0.2099,0.2207,0.2284,0.2341,0.2425,0.2531,0.2607,0.2736,0.2829,0.2933,0.2882,0.2931,0.3054,0.3117,0.3261,0.3088,0.331,0.3317,0.3214,0.3421,0.3353,0.3561,0.345,0.3456,0.3461,0,0.2004,0.2081,0.2196,0.2343,0.2377,0.243,0.2624,0.2695,0.2875,0.2939,0.3087,0.3133,0.3319,0.3233,0.3493,0.3379,0.3455,0.3497,0.3507,0.3429,0.329,0.3421,0.3633,0.3575,0.3518,0.3514,0.351,0,0.2054,0.216,0.2275,0.2319,0.2461,0.2538,0.261,0.2775,0.2854,0.308,0.3151,0.3377,0.3453,0.3623,0.3683,0.362,0.394,0.3858,0.3862,0.3851,0.3852,0.3829,0.4047,0.4117,0.4116,0.4116,0.4115,0,0.2128,0.222,0.2306,0.2383,0.2499,0.2591,0.2725,0.2836,0.2988,0.3102,0.3252,0.3367,0.3555,0.3715,0.3799,0.3942,0.4051,0.3962,0.3952,0.3867,0.3844,0.3834,0.3749,0.4125,0.4123,0.4121,0.412,0,0.2196,0.2259,0.2376,0.2504,0.253,0.2617,0.271,0.2807,0.2956,0.3107,0.3175,0.3397,0.3617,0.3781,0.4041,0.4052,0.4126,0.4243,0.4094,0.4063,0.396,0.3879,0.3942,0.3825,0.4319,0.4319,0.4319,0,0.2259,0.2329,0.2415,0.2441,0.2491,0.2589,0.2638,0.2776,0.2861,0.3105,0.3179,0.3433,0.3591,0.3917,0.4066,0.4271,0.4146,0.4271,0.4155,0.4024,0.3931,0.3732,0.3612,0.4182,0.4181,0.4179,0.4179,0,0.2345,0.2348,0.2414,0.245,0.2492,0.2534,0.262,0.2666,0.2843,0.2968,0.3153,0.3302,0.3636,0.3834,0.4081,0.4175,0.4079,0.4247,0.4212,0.3956,0.3667,0.3521,0.3895,0.4168,0.4169,0.417,0.4171,0.4171,0.2352,0.2372,0.2402,0.2439,0.2463,0.2473,0.2477,0.2575,0.2673,0.284,0.3047,0.3245,0.3623,0.3968,0.4033,0.4117,0.4003,0.4071,0.4021,0.3859,0.3645,0.3953,0.4127,0.4127,0.4128,0.4129,0.4129,0,0.235,0.2356,0.2383,0.2395,0.2379,0.241,0.245,0.2443,0.2507,0.2727,0.2881,0.3273,0.3543,0.3814,0.4047,0.3952,0.3777,0.3864,0.3637,0.3556,0.3983,0.3874,0.388,0.388,0.388,0.388,0.388,0.388,0.2343,0.2346,0.2353,0.2304,0.2293,0.223,0.2219,0.2235,0.2353,0.2527,0.2735,0.2973,0.3448,0.3893,0.3973,0.3874,0.3565,0.3432,0.3351,0.3729,0.3745,0.3761,0.3647,0.3604,0.3604,0.2847,0.2842,0.2838]},{"header":{"parameterUnit":"m.s-1","parameterCategory":2,"la1":30.2991,"la2":30.254,"lo1":-89.0895,"lo2":-89.0444,"dy":0.0017,"dx":0.0017,"nx":28,"ny":28,"refTime":"2025-06-11T03:00:00:Z","depth":"0","parameterNumber":3,"parameterNumberName":"V-component_of_CURRENTS"},"data":[0,0,0,0,0,0,0,0,0,0,0,0,0,0,0,0,0,0,0,0,0,0,0,0,0,0,0,0,0,0,0,0,0,0,0,0,0,0,0,0,0,0,0,0,0,0,0,0,0,0,0,0,0,0,0,0,0,0,-0.0121,-0.0121,0,-0.011,-0.011,-0.011,-0.011,-0.011,-0.011,-0.011,-0.0088,-0.0087,-0.0086,0,0,0,0,0,0,0,0,0,0,0,0,0,-0.0146,-0.0146,-0.0122,-0.0121,-0.0121,-0.011,-0.011,-0.011,-0.0109,-0.011,-0.011,-0.011,-0.0088,-0.0087,-0.0086,0,0,0,0,0,0,0,0,0,0,0,0,0,-0.0135,-0.0146,-0.0122,-0.012,-0.0119,-0.011,-0.011,-0.011,-0.0109,-0.011,-0.011,-0.011,-0.0088,-0.0087,-0.0086,-0.0075,0,0,-0.0083,-0.0082,0,0,0,0,0,0,0,0,-0.0136,-0.0134,-0.012,-0.012,-0.012,-0.0112,-0.0111,-0.0098,-0.0109,-0.0113,-0.011,-0.011,-0.0094,-0.0093,-0.009,-0.0074,-0.0073,-0.0083,-0.0082,-0.0081,-0.0081,0,0,0,0,0,0,0,-0.0137,-0.0135,-0.0117,-0.012,-0.012,-0.0121,-0.0119,-0.0108,-0.0103,-0.0113,-0.0113,-0.0112,-0.0094,-0.0091,-0.009,-0.0073,-0.0083,-0.0082,-0.0081,-0.0081,-0.0039,-0.0039,0,0,0,0,0,0,-0.0138,-0.0135,-0.0117,-0.0117,-0.0128,-0.012,-0.0119,-0.0114,-0.0103,-0.0102,-0.0111,-0.0112,-0.0093,-0.0091,-0.0089,-0.0027,-0.0081,-0.008,-0.008,-0.004,-0.0039,-0.0039,0,0,0,0,0,0,-0.0138,-0.0136,-0.0118,-0.0126,-0.0124,-0.012,-0.0114,-0.0114,-0.0112,-0.0102,-0.01,-0.0111,-0.0093,-0.0091,-0.0082,-0.0028,-0.008,-0.0079,-0.004,-0.004,-0.0039,0.0066,0,0,0,0,0,0,-0.0139,-0.0136,-0.0131,-0.0126,-0.0124,-0.0106,-0.0114,-0.0113,-0.0111,-0.0111,-0.01,-0.0099,-0.0093,-0.0083,-0.0081,-0.0028,-0.0078,-0.0041,-0.004,-0.0039,0.0062,0.007,0.0077,0,0,0,0,0,-0.014,-0.012,-0.0131,-0.0129,-0.0118,-0.0105,-0.0104,-0.0102,-0.011,-0.0103,-0.0104,-0.0099,-0.0076,-0.0082,-0.0079,-0.0024,-0.0041,-0.004,-0.0039,0.0058,0.0068,0.0077,0,0,0,0,0,0,-0.0117,-0.0118,-0.013,-0.011,-0.011,-0.0105,-0.0093,-0.0102,-0.0097,-0.0098,-0.0097,-0.0094,-0.0068,-0.0074,-0.0082,-0.0016,-0.0056,-0.0054,0.0017,0.0026,0.0034,0.0136,-0.0077,0,0,0,0,0,-0.0114,-0.0107,-0.011,-0.0095,-0.0094,-0.0099,-0.0094,-0.0097,-0.0094,-0.0092,-0.0088,-0.0082,-0.0061,-0.0042,-0.004,-0.0,0.0019,0.0033,0.0041,0.0048,0.0129,0.0178,0.0199,-0.0035,-0.0035,-0.0035,0,0,-0.0101,-0.0101,-0.0096,-0.0091,-0.009,-0.0062,-0.0096,-0.0085,-0.0045,-0.0089,-0.0043,-0.0063,-0.0053,-0.001,0.0004,-0.0003,0.011,0.0049,0.0056,0.0135,0.0181,0.0205,0.0226,-0.0035,-0.0035,-0.0035,0,0,-0.0063,-0.0071,-0.0053,-0.0047,-0.0047,-0.004,-0.0038,-0.0039,-0.0022,-0.0004,-0.0012,0.0014,0.0012,0.0068,0.0088,0.014,0.0135,0.011,0.026,0.0303,0.0325,0.0345,0.035,0.0369,0.0132,0.0132,0.0132,0,-0.0046,-0.0003,-0.0044,-0.0019,0.003,-0.0025,0.0043,0.0037,0.004,0.0109,0.002,0.0103,0.0075,0.0219,0.0221,0.0172,0.0171,0.0227,0.032,0.034,0.0359,0.0359,0.038,0.0137,0.0137,0.0136,0.0136,0,0.0005,0.0052,0.0071,0.0099,0.0126,0.0177,0.0177,0.021,0.0205,0.0226,0.0321,0.0274,0.0361,0.0319,0.0284,0.0422,0.0366,0.031,0.0312,0.039,0.0383,0.0402,0.0145,0.0143,0.0141,0.014,0,0,0.005,0.0105,0.0118,0.021,0.022,0.0281,0.0342,0.0454,0.0576,0.0513,0.0684,0.0657,0.0647,0.0671,0.0625,0.0645,0.0712,0.054,0.054,0.0573,0.0785,0.0661,0.0669,0.0662,0.0667,0.0671,0.071,0,0.0134,0.0267,0.0251,0.0419,0.0527,0.0531,0.0628,0.0704,0.0741,0.0862,0.0841,0.0932,0.0775,0.0822,0.0823,0.0752,0.0776,0.0706,0.0685,0.0685,0.0589,0.0694,0.0601,0.0623,0.0729,0.0732,0.0734,0,0.0218,0.0325,0.0512,0.071,0.0755,0.0827,0.1069,0.1131,0.1246,0.1279,0.1349,0.1302,0.1358,0.1173,0.1147,0.1102,0.0985,0.089,0.0888,0.0778,0.0601,0.0569,0.0653,0.0437,0.0764,0.0762,0.0759,0,0.0392,0.0532,0.0731,0.0785,0.095,0.1073,0.1158,0.1293,0.1399,0.1553,0.163,0.1671,0.1675,0.1573,0.1322,0.1263,0.124,0.1136,0.0929,0.0916,0.0846,0.0819,0.0761,0.1158,0.1158,0.1158,0.1158,0,0.0562,0.0731,0.0838,0.0968,0.1211,0.1264,0.1506,0.1602,0.174,0.1887,0.1856,0.1948,0.1766,0.1685,0.147,0.1254,0.1362,0.102,0.0953,0.0866,0.0842,0.0654,0.0521,0.1159,0.1159,0.1158,0.1158,0,0.0755,0.0822,0.1055,0.1247,0.1305,0.1484,0.1645,0.1809,0.1926,0.2112,0.216,0.2173,0.2083,0.186,0.168,0.1433,0.109,0.1138,0.1021,0.094,0.0542,0.0417,0.0353,0.0194,0.0979,0.0977,0.0975,0,0.0891,0.1024,0.1225,0.1318,0.1407,0.1616,0.1744,0.1894,0.2032,0.2226,0.2322,0.2312,0.2296,0.1984,0.1577,0.1252,0.1026,0.0938,0.0826,0.0571,0.0383,0.0313,0.0178,0.075,0.0747,0.0744,0.0741,0,0.1121,0.1157,0.1301,0.1471,0.1621,0.1802,0.1985,0.2117,0.229,0.2439,0.2584,0.26,0.2291,0.192,0.1451,0.1185,0.0737,0.0865,0.0665,0.0286,0.0153,-0.0054,0.0637,0.0715,0.0718,0.0719,0.0721,0.0722,0.1234,0.133,0.1441,0.1613,0.1757,0.1958,0.2122,0.2286,0.2507,0.2726,0.2728,0.2769,0.2248,0.1599,0.1207,0.0472,0.0522,0.0261,0.0156,0.0131,-0.0085,0.0528,0.0475,0.0476,0.0477,0.0478,0.0479,0,0.1356,0.142,0.1563,0.1765,0.1918,0.1989,0.2251,0.2402,0.2632,0.2797,0.2906,0.2653,0.1977,0.1329,0.0344,-0.0143,-0.0325,-0.0375,-0.0479,-0.0568,0.0044,-0.0034,-0.0277,-0.0277,-0.0277,-0.0277,-0.0277,-0.0276,0.1417,0.1544,0.1607,0.1856,0.1979,0.222,0.2368,0.2575,0.2727,0.2887,0.2895,0.2886,0.2397,0.0695,-0.0464,-0.0714,-0.1036,-0.11,-0.1235,-0.0822,-0.077,-0.072,-0.0821,-0.1225,-0.1226,-0.1827,-0.1833,-0.1838]}],[{"header":{"parameterUnit":"m.s-1","parameterCategory":2,"la1":30.2991,"la2":30.254,"lo1":-89.0895,"lo2":-89.0444,"dy":0.0017,"dx":0.0017,"nx":28,"ny":28,"refTime":"2025-06-11T03:00:00:Z","depth":"2","parameterNumber":2,"parameterNumberName":"U-component_of_CURRENTS"},"data":[0,0,0,0,0,0,0,0,0,0,0,0,0,0,0,0,0,0,0,0,0,0,0,0,0,0,0,0,0,0,0,0,0,0,0,0,0,0,0,0,0,0,0,0,0,0,0,0,0,0,0,0,0,0,0,0,0,0,0.2015,0.2015,0,0.2004,0.2003,0.2003,0.1982,0.1982,0.1982,0.1982,0.2048,0.205,0.2052,0,0,0,0,0,0,0,0,0,0,0,0,0,0.1952,0.1953,0.2015,0.2015,0.2015,0.2004,0.2003,0.2003,0.1982,0.1982,0.1982,0.1982,0.2048,0.205,0.2052,0,0,0,0,0,0,0,0,0,0,0,0,0,0.1961,0.1954,0.2015,0.2006,0.2006,0.2004,0.2003,0.2003,0.1982,0.1982,0.1982,0.1982,0.2047,0.205,0.2052,0.2071,0,0,0.2061,0.2062,0,0,0,0,0,0,0,0,0.196,0.1962,0.2007,0.2007,0.2006,0.1998,0.2005,0.2031,0.1983,0.1987,0.1982,0.1982,0.2041,0.2044,0.2036,0.2074,0.2077,0.2061,0.2062,0.2064,0.2064,0,0,0,0,0,0,0,0.196,0.1962,0.2007,0.2008,0.2007,0.1981,0.1982,0.2009,0.2014,0.1987,0.1986,0.1991,0.2041,0.2033,0.2038,0.2078,0.2061,0.2063,0.2065,0.2066,0.222,0.2222,0,0,0,0,0,0,0.1972,0.1963,0.2007,0.2007,0.1987,0.1982,0.1984,0.1998,0.2012,0.2014,0.1991,0.199,0.2029,0.2035,0.204,0.2125,0.2064,0.2066,0.2068,0.2217,0.222,0.2223,0,0,0,0,0,0,0.1971,0.1977,0.2008,0.1986,0.1989,0.1984,0.2,0.1997,0.1999,0.2014,0.2018,0.1996,0.2029,0.2036,0.2091,0.2125,0.2067,0.207,0.2214,0.2218,0.2221,0.2255,0,0,0,0,0,0,0.1969,0.1976,0.1989,0.1988,0.1991,0.2027,0.2,0.1997,0.2003,0.2002,0.202,0.2025,0.2029,0.2087,0.2093,0.2128,0.2072,0.2211,0.2216,0.222,0.2251,0.2259,0.2267,0,0,0,0,0,0.1967,0.1989,0.1989,0.1995,0.2009,0.2029,0.2028,0.202,0.2004,0.2018,0.2035,0.2025,0.2121,0.2091,0.2098,0.2134,0.2209,0.2215,0.222,0.2247,0.2258,0.2266,0,0,0,0,0,0,0.1963,0.1989,0.199,0.2017,0.2031,0.2027,0.2037,0.2028,0.2046,0.205,0.2052,0.206,0.2117,0.213,0.2097,0.2196,0.2165,0.2172,0.2184,0.2194,0.2201,0.2252,0.2074,0,0,0,0,0,0.1971,0.1995,0.2013,0.2034,0.2046,0.2041,0.2046,0.2047,0.2062,0.2068,0.2078,0.2106,0.2144,0.2171,0.22,0.2256,0.2263,0.2288,0.2296,0.2302,0.2352,0.243,0.245,0.2241,0.2241,0.2241,0,0,0.197,0.1991,0.2001,0.2035,0.2042,0.207,0.2044,0.2066,0.2096,0.2077,0.212,0.213,0.2164,0.2223,0.2251,0.224,0.2344,0.2309,0.2314,0.2362,0.2438,0.2458,0.2477,0.2245,0.2244,0.2243,0,0,0.1982,0.2009,0.2029,0.2054,0.2084,0.2095,0.2106,0.2117,0.2134,0.2177,0.2174,0.2219,0.2258,0.2299,0.2324,0.2402,0.2377,0.2399,0.2489,0.2562,0.258,0.2597,0.2529,0.254,0.2411,0.2411,0.2411,0,0.1978,0.2023,0.2037,0.2069,0.2108,0.2111,0.2155,0.2171,0.2196,0.224,0.2206,0.2301,0.2306,0.2412,0.2433,0.2422,0.2417,0.2438,0.2572,0.259,0.2606,0.2534,0.2545,0.2413,0.2413,0.2413,0.2413,0,0.2007,0.2051,0.2072,0.2124,0.216,0.2207,0.2244,0.2279,0.2295,0.2322,0.2416,0.2428,0.2492,0.2492,0.2485,0.2609,0.2543,0.256,0.2543,0.2629,0.2546,0.2557,0.2417,0.2416,0.2415,0.2415,0,0,0.1988,0.2077,0.2084,0.2142,0.221,0.225,0.2318,0.2406,0.2474,0.2497,0.2587,0.2645,0.2649,0.2681,0.2673,0.2744,0.2791,0.2709,0.2712,0.263,0.2861,0.2856,0.2865,0.2839,0.2843,0.2847,0.2718,0,0.2016,0.2103,0.2139,0.224,0.2306,0.2358,0.2435,0.2512,0.2565,0.2643,0.2691,0.2754,0.2721,0.2739,0.2813,0.2817,0.2841,0.2819,0.2804,0.2802,0.2781,0.2889,0.2703,0.2583,0.2728,0.273,0.2731,0,0.2047,0.2111,0.2212,0.2357,0.239,0.2444,0.2599,0.2664,0.2775,0.2819,0.2897,0.2897,0.2981,0.2933,0.3004,0.2992,0.294,0.2927,0.2922,0.2939,0.2825,0.2545,0.2597,0.2749,0.2748,0.2746,0.2745,0,0.2072,0.218,0.2277,0.232,0.2455,0.2523,0.2601,0.2724,0.2788,0.2915,0.295,0.3056,0.3081,0.3108,0.306,0.3034,0.3119,0.3061,0.2988,0.2977,0.2837,0.2811,0.3119,0.3119,0.3119,0.312,0.312,0,0.2124,0.2204,0.2295,0.2354,0.247,0.2567,0.2689,0.2782,0.2892,0.2959,0.303,0.3074,0.3144,0.3166,0.3113,0.3101,0.3148,0.3041,0.3001,0.283,0.2808,0.2993,0.2981,0.3115,0.3116,0.3117,0.3118,0,0.2138,0.2209,0.2307,0.2438,0.2484,0.2557,0.2685,0.275,0.2887,0.296,0.2983,0.31,0.3132,0.315,0.3177,0.3155,0.314,0.3103,0.284,0.2779,0.2895,0.2886,0.2988,0.2988,0.2988,0.2988,0.2988,0,0.2167,0.2214,0.2319,0.2339,0.2391,0.2499,0.2557,0.272,0.2766,0.2944,0.2954,0.3041,0.3043,0.3104,0.3115,0.3047,0.3084,0.2853,0.2822,0.296,0.2909,0.2899,0.289,0.2553,0.255,0.2547,0.2545,0,0.2167,0.2179,0.2217,0.227,0.232,0.2391,0.2486,0.2523,0.2689,0.2752,0.2829,0.2854,0.2942,0.2874,0.2896,0.2828,0.2871,0.2794,0.3055,0.2667,0.2557,0.2505,0.2508,0.2519,0.2521,0.2523,0.2525,0.2526,0.2099,0.2106,0.2126,0.2168,0.2225,0.2275,0.2293,0.2366,0.2435,0.2487,0.2608,0.2596,0.2682,0.261,0.255,0.255,0.2706,0.2605,0.261,0.2619,0.2645,0.255,0.2502,0.2504,0.2506,0.2508,0.2509,0,0.1999,0.2026,0.2031,0.2065,0.2068,0.2173,0.223,0.2187,0.2202,0.226,0.2287,0.2136,0.2144,0.2207,0.2189,0.2242,0.217,0.2146,0.2041,0.2071,0.2098,0.2093,0.1804,0.1801,0.1798,0.1795,0,0,0.193,0.1899,0.1915,0.19,0.1948,0.1953,0.1974,0.1915,0.1925,0.1823,0.1818,0.1959,0.2126,0.1899,0.1931,0.1864,0.192,0.1787,0.2366,0.227,0.2291,0.2397,0.2432,0,0,0,0,0]},{"header":{"parameterUnit":"m.s-1","parameterCategory":2,"la1":30.2991,"la2":30.254,"lo1":-89.0895,"lo2":-89.0444,"dy":0.0017,"dx":0.0017,"nx":28,"ny":28,"refTime":"2025-06-11T03:00:00:Z","depth":"2","parameterNumber":3,"parameterNumberName":"V-component_of_CURRENTS"},"data":[0,0,0,0,0,0,0,0,0,0,0,0,0,0,0,0,0,0,0,0,0,0,0,0,0,0,0,0,0,0,0,0,0,0,0,0,0,0,0,0,0,0,0,0,0,0,0,0,0,0,0,0,0,0,0,0,0,0,-0.0263,-0.0263,0,-0.026,-0.026,-0.026,-0.0258,-0.0258,-0.0258,-0.0258,-0.0301,-0.0302,-0.0303,0,0,0,0,0,0,0,0,0,0,0,0,0,-0.0276,-0.0276,-0.0263,-0.0263,-0.0263,-0.026,-0.026,-0.026,-0.0258,-0.0258,-0.0258,-0.0258,-0.0301,-0.0302,-0.0303,0,0,0,0,0,0,0,0,0,0,0,0,0,-0.0271,-0.0276,-0.0263,-0.0262,-0.0262,-0.026,-0.026,-0.026,-0.0258,-0.0258,-0.0258,-0.0258,-0.03,-0.0302,-0.0304,-0.0315,0,0,-0.0309,-0.031,0,0,0,0,0,0,0,0,-0.0272,-0.0271,-0.0262,-0.0262,-0.0262,-0.0259,-0.028,-0.0281,-0.0258,-0.026,-0.0258,-0.0258,-0.0291,-0.0294,-0.0293,-0.0317,-0.0319,-0.0309,-0.031,-0.0311,-0.0311,0,0,0,0,0,0,0,-0.0272,-0.0271,-0.0262,-0.0262,-0.0262,-0.0264,-0.0263,-0.028,-0.0277,-0.026,-0.0259,-0.0258,-0.0291,-0.0291,-0.0294,-0.032,-0.0309,-0.0311,-0.0312,-0.0312,-0.0327,-0.0327,0,0,0,0,0,0,-0.0272,-0.0271,-0.0262,-0.0262,-0.0266,-0.0263,-0.0263,-0.026,-0.0276,-0.0277,-0.0259,-0.0258,-0.0288,-0.0292,-0.0296,-0.0282,-0.0311,-0.0313,-0.0314,-0.0328,-0.0327,-0.0326,0,0,0,0,0,0,-0.0272,-0.0271,-0.0263,-0.0267,-0.0266,-0.0263,-0.026,-0.026,-0.0258,-0.0274,-0.0277,-0.0256,-0.0288,-0.0293,-0.0295,-0.0285,-0.0313,-0.0315,-0.0329,-0.0328,-0.0327,-0.0274,0,0,0,0,0,0,-0.0272,-0.0271,-0.0266,-0.0267,-0.0265,-0.0253,-0.026,-0.026,-0.0258,-0.0257,-0.0274,-0.0277,-0.0289,-0.0293,-0.0297,-0.0288,-0.0316,-0.033,-0.0328,-0.0327,-0.0277,-0.0272,-0.0267,0,0,0,0,0,-0.0273,-0.0256,-0.0266,-0.0265,-0.026,-0.0252,-0.0251,-0.025,-0.0257,-0.025,-0.0257,-0.0277,-0.0288,-0.0293,-0.0299,-0.029,-0.033,-0.0329,-0.0327,-0.0279,-0.0273,-0.0267,0,0,0,0,0,0,-0.0248,-0.0254,-0.0265,-0.025,-0.0251,-0.0251,-0.024,-0.0249,-0.0249,-0.0249,-0.0269,-0.0273,-0.0272,-0.0288,-0.0294,-0.029,-0.0313,-0.0312,-0.0274,-0.0269,-0.0264,-0.024,-0.0318,0,0,0,0,0,-0.0246,-0.024,-0.0247,-0.0235,-0.0234,-0.0242,-0.0238,-0.0241,-0.0243,-0.0242,-0.0255,-0.0266,-0.0271,-0.0275,-0.0284,-0.0285,-0.0335,-0.0282,-0.0277,-0.0273,-0.0257,-0.0302,-0.03,-0.0322,-0.0322,-0.0322,0,0,-0.0232,-0.0235,-0.0231,-0.023,-0.0231,-0.0218,-0.0239,-0.0229,-0.0217,-0.0249,-0.0235,-0.0252,-0.0267,-0.0261,-0.0262,-0.0273,-0.0306,-0.0271,-0.0267,-0.0254,-0.03,-0.0298,-0.0297,-0.0321,-0.0321,-0.0321,0,0,-0.0198,-0.0206,-0.0191,-0.019,-0.0192,-0.0196,-0.0195,-0.0199,-0.0197,-0.0193,-0.0209,-0.0216,-0.0228,-0.0232,-0.0236,-0.0213,-0.028,-0.022,-0.0175,-0.0218,-0.0217,-0.0216,-0.0334,-0.0344,-0.0215,-0.0215,-0.0215,0,-0.0181,-0.0161,-0.0184,-0.0167,-0.0149,-0.0185,-0.0154,-0.0164,-0.0169,-0.0155,-0.018,-0.0181,-0.0211,-0.0189,-0.0183,-0.0202,-0.026,-0.0196,-0.0213,-0.0212,-0.0213,-0.0333,-0.0345,-0.0212,-0.0213,-0.0213,-0.0213,0,-0.0141,-0.012,-0.0106,-0.0098,-0.0089,-0.0065,-0.008,-0.0081,-0.0093,-0.0094,-0.0081,-0.0117,-0.0111,-0.0131,-0.0152,-0.0154,-0.0211,-0.0205,-0.0228,-0.0207,-0.0337,-0.035,-0.0209,-0.021,-0.021,-0.0211,0,0,-0.0101,-0.008,-0.0072,-0.0042,-0.0042,-0.0022,-0.0013,0.0007,0.0021,0.0003,0.0022,0.0008,-0.0011,-0.0017,-0.0052,-0.0095,-0.0183,-0.0146,-0.015,-0.0265,-0.0337,-0.0285,-0.0296,-0.0175,-0.0175,-0.0176,-0.0449,0,-0.0053,0.0002,-0.0001,0.0065,0.0101,0.0083,0.0109,0.0114,0.009,0.0086,0.0057,0.0039,0.0033,0.0004,-0.0017,-0.0124,-0.0205,-0.0113,-0.0337,-0.0345,-0.03,-0.0302,-0.0256,-0.0483,-0.0462,-0.0465,-0.0466,0,-0.0004,0.0031,0.0094,0.0172,0.0188,0.0218,0.0253,0.0275,0.0249,0.0226,0.0215,0.0139,0.0096,0.0048,-0.0084,-0.0021,-0.0176,-0.0281,-0.0293,-0.0259,-0.0312,-0.0488,-0.0509,-0.0489,-0.0487,-0.0486,-0.0484,0,0.0039,0.0117,0.0175,0.0193,0.0245,0.0286,0.0337,0.0333,0.0316,0.029,0.0217,0.0209,0.0121,0.0024,-0.0157,-0.0148,-0.0346,-0.037,-0.0487,-0.049,-0.0498,-0.0497,-0.0522,-0.0522,-0.0521,-0.052,-0.0519,0,0.0086,0.0139,0.0208,0.0231,0.0297,0.0368,0.0408,0.0424,0.0408,0.0379,0.0303,0.0222,0.0103,-0.0036,-0.016,-0.0323,-0.0345,-0.0482,-0.0532,-0.0483,-0.0478,-0.0498,-0.0492,-0.0531,-0.0528,-0.0526,-0.0524,0,0.0063,0.0122,0.0174,0.0264,0.0296,0.0345,0.0396,0.0415,0.0417,0.0347,0.0304,0.0178,0.0049,-0.0094,-0.0306,-0.0369,-0.0521,-0.0608,-0.0565,-0.06,-0.0667,-0.0654,-0.0782,-0.0782,-0.0782,-0.0782,-0.0781,0,0.004,0.0068,0.014,0.0172,0.0202,0.0286,0.0324,0.0383,0.0375,0.0321,0.0268,0.01,0.0042,-0.0193,-0.0349,-0.0544,-0.0585,-0.0682,-0.0628,-0.0645,-0.0683,-0.0671,-0.0659,-0.0687,-0.0686,-0.0685,-0.0685,0,-0.0032,-0.0013,0.0019,0.0093,0.0146,0.0183,0.0265,0.024,0.0308,0.0296,0.0298,0.0263,0.0025,-0.0089,-0.0356,-0.0494,-0.0603,-0.0674,-0.0715,-0.0571,-0.056,-0.0594,-0.0586,-0.0678,-0.0679,-0.0679,-0.068,-0.068,-0.0114,-0.0115,-0.0039,0.0017,0.0106,0.0166,0.0188,0.0284,0.0342,0.0418,0.0368,0.0425,0.0181,-0.0062,-0.031,-0.0582,-0.0605,-0.0691,-0.0693,-0.0695,-0.0577,-0.0559,-0.0664,-0.0665,-0.0665,-0.0665,-0.0666,0,-0.0181,-0.0132,-0.0092,-0.0001,0.0089,0.0152,0.0212,0.0294,0.0439,0.0533,0.0636,0.0506,0.0331,0.0055,-0.0322,-0.0564,-0.0603,-0.0649,-0.0636,-0.0641,-0.0645,-0.0523,-0.0598,-0.0599,-0.0599,-0.0599,0,0,-0.0221,-0.018,-0.015,-0.0013,0.0084,0.02,0.0247,0.0428,0.0552,0.0752,0.0835,0.0832,0.0472,0.0227,-0.0131,-0.0349,-0.0442,-0.0406,-0.0436,-0.0385,-0.0386,-0.0649,-0.0462,0,0,0,0,0]}],[{"header":{"parameterUnit":"m.s-1","parameterCategory":2,"la1":30.2991,"la2":30.254,"lo1":-89.0895,"lo2":-89.0444,"dy":0.0017,"dx":0.0017,"nx":28,"ny":28,"refTime":"2025-06-11T03:00:00:Z","depth":"4","parameterNumber":2,"parameterNumberName":"U-component_of_CURRENTS"},"data":[0,0,0,0,0,0,0,0,0,0,0,0,0,0,0,0,0,0,0,0,0,0,0,0,0,0,0,0,0,0,0,0,0,0,0,0,0,0,0,0,0,0,0,0,0,0,0,0,0,0,0,0,0,0,0,0,0,0,0.0934,0.0935,0,0.1065,0.1066,0.1068,0.1149,0.1149,0.1149,0.115,0.1178,0.1179,0.1179,0,0,0,0,0,0,0,0,0,0,0,0,0,0.0823,0.0825,0.0934,0.0935,0.0937,0.1065,0.1066,0.1068,0.1149,0.1149,0.1149,0.115,0.1178,0.1179,0.1179,0,0,0,0,0,0,0,0,0,0,0,0,0,0.0905,0.0825,0.0934,0.0992,0.0998,0.1064,0.1067,0.1069,0.1148,0.1149,0.1149,0.115,0.1178,0.1178,0.1179,0.1174,0,0,0.1181,0.1182,0,0,0,0,0,0,0,0,0.09,0.0909,0.0982,0.0988,0.0995,0.109,0.1038,0.1098,0.1148,0.1092,0.115,0.115,0.1138,0.1142,0.1169,0.1175,0.1176,0.1181,0.1182,0.1182,0.1182,0,0,0,0,0,0,0,0.0895,0.0905,0.0987,0.0983,0.0991,0.1035,0.1047,0.1051,0.111,0.1097,0.1103,0.1116,0.1141,0.1168,0.1169,0.1177,0.1181,0.1182,0.1182,0.1183,0.1275,0.1276,0,0,0,0,0,0,0.0872,0.0899,0.0983,0.0991,0.0947,0.1036,0.1049,0.106,0.1112,0.1121,0.1115,0.1119,0.1166,0.1169,0.1171,0.126,0.1182,0.1183,0.1183,0.1273,0.1275,0.1277,0,0,0,0,0,0,0.0869,0.0878,0.0977,0.0947,0.0963,0.1037,0.1049,0.1062,0.1125,0.1127,0.1134,0.1168,0.1167,0.117,0.1213,0.1258,0.1183,0.1184,0.127,0.1273,0.1276,0.1379,0,0,0,0,0,0,0.0866,0.0876,0.0897,0.0945,0.0963,0.104,0.1048,0.1064,0.1129,0.1137,0.1173,0.1175,0.1168,0.1212,0.1213,0.1257,0.1184,0.1268,0.1272,0.1275,0.1373,0.1385,0.1395,0,0,0,0,0,0.0861,0.0882,0.0897,0.0909,0.0982,0.1042,0.1057,0.1111,0.1131,0.1168,0.1196,0.1176,0.1237,0.1214,0.1216,0.1261,0.1266,0.127,0.1275,0.1368,0.1382,0.1395,0,0,0,0,0,0,0.0852,0.0894,0.0911,0.0947,0.1001,0.1056,0.1097,0.1132,0.1188,0.1197,0.1201,0.1205,0.1261,0.1245,0.122,0.1299,0.1248,0.1253,0.1318,0.1332,0.1343,0.1338,0.1185,0,0,0,0,0,0.0855,0.0878,0.093,0.0961,0.099,0.1051,0.1089,0.1125,0.117,0.1198,0.1222,0.1246,0.1276,0.1292,0.1307,0.1347,0.1326,0.1377,0.1388,0.1398,0.1396,0.1398,0.1409,0.1292,0.1292,0.1292,0,0,0.0856,0.0885,0.0899,0.0961,0.1007,0.1062,0.1077,0.1141,0.1196,0.1186,0.1268,0.1286,0.1296,0.1349,0.1372,0.1345,0.1427,0.1403,0.1412,0.1404,0.1404,0.1415,0.1425,0.1295,0.1295,0.1294,0,0,0.0874,0.0902,0.0935,0.0983,0.1055,0.109,0.1115,0.1188,0.1235,0.1304,0.1318,0.1366,0.1406,0.1431,0.1445,0.1524,0.1487,0.1532,0.1586,0.159,0.16,0.1607,0.1621,0.1629,0.1537,0.1537,0.1537,0,0.0882,0.0926,0.0958,0.1012,0.1056,0.1106,0.1164,0.1218,0.1298,0.1333,0.134,0.1429,0.1446,0.1512,0.1553,0.1551,0.1544,0.1536,0.1604,0.1611,0.1617,0.1629,0.1637,0.1543,0.1542,0.1542,0.1541,0,0.0921,0.0975,0.1003,0.1078,0.113,0.1187,0.1254,0.1312,0.1364,0.1411,0.1496,0.1528,0.1578,0.1601,0.1608,0.1672,0.1653,0.1619,0.1567,0.1635,0.1644,0.165,0.1551,0.1549,0.1547,0.1546,0,0,0.0889,0.1007,0.1021,0.1069,0.1171,0.121,0.1299,0.1385,0.1441,0.1515,0.1584,0.1666,0.1684,0.1702,0.1718,0.1733,0.1797,0.1706,0.1704,0.1716,0.1815,0.1753,0.1753,0.1771,0.1772,0.1773,0.1813,0,0.0919,0.1016,0.1073,0.1168,0.1224,0.1294,0.1367,0.1446,0.1516,0.1589,0.1639,0.1709,0.1723,0.1758,0.1783,0.1787,0.1813,0.179,0.175,0.1749,0.1681,0.1757,0.1777,0.1817,0.1819,0.182,0.182,0,0.0939,0.1002,0.1104,0.1211,0.1241,0.1308,0.1415,0.149,0.1594,0.1651,0.1727,0.176,0.1835,0.1815,0.1866,0.185,0.1851,0.1843,0.1843,0.1746,0.1696,0.1729,0.183,0.1829,0.1829,0.1828,0.1827,0,0.0888,0.1017,0.1096,0.1138,0.1268,0.1329,0.1399,0.1512,0.1572,0.1696,0.1738,0.1822,0.1867,0.1879,0.191,0.1886,0.1936,0.1889,0.1834,0.183,0.1826,0.1817,0.1912,0.1912,0.1912,0.1912,0.1912,0,0.0881,0.0942,0.1083,0.1126,0.1201,0.131,0.1406,0.1484,0.16,0.1668,0.1768,0.1819,0.1882,0.1922,0.1926,0.1917,0.1956,0.1858,0.1838,0.1873,0.1868,0.1832,0.1822,0.1914,0.1913,0.1913,0.1913,0,0.0809,0.0912,0.0996,0.1141,0.1187,0.1238,0.1389,0.1449,0.1577,0.1664,0.1703,0.1824,0.1891,0.1943,0.1975,0.1933,0.1927,0.1912,0.198,0.196,0.1812,0.1807,0.1834,0.1832,0.183,0.1829,0.1828,0,0.0777,0.0825,0.0976,0.1023,0.1097,0.1201,0.127,0.1418,0.1486,0.1655,0.1674,0.1791,0.1864,0.1861,0.1928,0.1946,0.1924,0.1909,0.1834,0.1827,0.1805,0.1802,0.18,0.1826,0.1825,0.1825,0.1824,0,0.0707,0.078,0.0845,0.0943,0.1026,0.1106,0.1223,0.1256,0.1429,0.1542,0.162,0.1677,0.1757,0.1807,0.1855,0.1855,0.1907,0.1891,0.1893,0.1822,0.1817,0.1796,0.1795,0.1819,0.182,0.182,0.1821,0,0.0647,0.0665,0.0772,0.085,0.094,0.1004,0.1075,0.1177,0.1257,0.1449,0.1474,0.1614,0.1735,0.1763,0.18,0.1814,0.1772,0.1698,0.1709,0.1715,0.1663,0.1638,0.158,0,0,0,0,0,0.0586,0.0618,0.0678,0.0765,0.0851,0.0917,0.1043,0.1125,0.1282,0.1298,0.1389,0.1468,0.1555,0.1627,0.1617,0.1745,0.1773,0.1727,0.1689,0.1789,0.1795,0.1748,0,0,0,0,0,0,0.055,0.0599,0.0644,0.069,0.0739,0.0825,0.0906,0.101,0.1038,0.1199,0.1249,0.138,0.1477,0.154,0.1586,0.1611,0.1559,0.1822,0.1819,0.1785,0.1791,0.1796,0.1749,0,0,0,0,0]},{"header":{"parameterUnit":"m.s-1","parameterCategory":2,"la1":30.2991,"la2":30.254,"lo1":-89.0895,"lo2":-89.0444,"dy":0.0017,"dx":0.0017,"nx":28,"ny":28,"refTime":"2025-06-11T03:00:00:Z","depth":"4","parameterNumber":3,"parameterNumberName":"V-component_of_CURRENTS"},"data":[0,0,0,0,0,0,0,0,0,0,0,0,0,0,0,0,0,0,0,0,0,0,0,0,0,0,0,0,0,0,0,0,0,0,0,0,0,0,0,0,0,0,0,0,0,0,0,0,0,0,0,0,0,0,0,0,0,0,-0.0005,-0.0005,0,-0.0078,-0.0079,-0.0079,-0.0125,-0.0126,-0.0126,-0.0126,-0.0227,-0.0229,-0.0232,0,0,0,0,0,0,0,0,0,0,0,0,0,0.0065,0.0064,-0.0004,-0.0005,-0.0006,-0.0078,-0.0079,-0.008,-0.0125,-0.0126,-0.0126,-0.0126,-0.0226,-0.0229,-0.0232,0,0,0,0,0,0,0,0,0,0,0,0,0,0.0017,0.0064,-0.0004,-0.0037,-0.0041,-0.0077,-0.0079,-0.008,-0.0125,-0.0126,-0.0126,-0.0126,-0.0225,-0.0229,-0.0232,-0.0248,0,0,-0.0244,-0.0245,0,0,0,0,0,0,0,0,0.002,0.0015,-0.0032,-0.0035,-0.0039,-0.0093,-0.0091,-0.0137,-0.0125,-0.0094,-0.0126,-0.0126,-0.0184,-0.0191,-0.0204,-0.0253,-0.0257,-0.0244,-0.0246,-0.0248,-0.0249,0,0,0,0,0,0,0,0.0023,0.0017,-0.0034,-0.0033,-0.0037,-0.0059,-0.0066,-0.01,-0.0137,-0.0096,-0.01,-0.0107,-0.0186,-0.02,-0.0207,-0.0259,-0.0244,-0.0247,-0.0249,-0.0251,-0.0336,-0.0336,0,0,0,0,0,0,0.0035,0.0021,-0.0031,-0.0036,-0.001,-0.006,-0.0068,-0.0075,-0.0136,-0.0145,-0.0107,-0.0109,-0.0194,-0.0202,-0.0211,-0.0239,-0.0248,-0.0251,-0.0253,-0.0336,-0.0336,-0.0336,0,0,0,0,0,0,0.0037,0.0031,-0.0029,-0.0009,-0.0018,-0.0061,-0.0069,-0.0077,-0.01,-0.0144,-0.0154,-0.0123,-0.0195,-0.0205,-0.0239,-0.0243,-0.0253,-0.0256,-0.0336,-0.0336,-0.0336,-0.0293,0,0,0,0,0,0,0.0039,0.0032,0.0027,-0.0008,-0.0019,-0.0051,-0.0069,-0.0078,-0.0103,-0.0107,-0.016,-0.017,-0.0196,-0.0233,-0.0242,-0.0248,-0.0259,-0.0336,-0.0336,-0.0336,-0.0294,-0.0291,-0.0289,0,0,0,0,0,0.0042,0.0037,0.0027,0.002,-0.0024,-0.0051,-0.0058,-0.009,-0.0103,-0.0112,-0.0143,-0.0168,-0.024,-0.0236,-0.0247,-0.0254,-0.0336,-0.0336,-0.0336,-0.0295,-0.0292,-0.0289,0,0,0,0,0,0,0.0057,0.003,0.0019,0.0004,-0.0021,-0.0058,-0.0072,-0.0092,-0.0124,-0.013,-0.017,-0.0181,-0.021,-0.0239,-0.0233,-0.0279,-0.0293,-0.0295,-0.0257,-0.0255,-0.0252,-0.0276,-0.0262,0,0,0,0,0,0.006,0.0054,0.0022,0.0011,-0.0002,-0.0037,-0.0054,-0.0074,-0.0105,-0.012,-0.0152,-0.0188,-0.0218,-0.0241,-0.0269,-0.0299,-0.0336,-0.0311,-0.0308,-0.0306,-0.0333,-0.0388,-0.0393,-0.0337,-0.0337,-0.0337,0,0,0.0064,0.0048,0.0044,0.0014,-0.0009,-0.0024,-0.0049,-0.0073,-0.0089,-0.0126,-0.0154,-0.0179,-0.0223,-0.0249,-0.0265,-0.0275,-0.0333,-0.0306,-0.0303,-0.0333,-0.0389,-0.0394,-0.0399,-0.0337,-0.0337,-0.0337,0,0,0.0072,0.0053,0.0051,0.0033,0.0003,-0.0018,-0.0025,-0.006,-0.0082,-0.0106,-0.0136,-0.017,-0.0209,-0.0247,-0.027,-0.0275,-0.0313,-0.0275,-0.029,-0.0341,-0.0347,-0.0352,-0.037,-0.0378,-0.0279,-0.0279,-0.0278,0,0.0074,0.0063,0.0045,0.0037,0.0015,-0.0014,-0.003,-0.0049,-0.0088,-0.0119,-0.0109,-0.0189,-0.0214,-0.0273,-0.0267,-0.0272,-0.0297,-0.0294,-0.0339,-0.0345,-0.0351,-0.037,-0.0379,-0.0276,-0.0277,-0.0277,-0.0277,0,0.0083,0.0067,0.0062,0.0044,0.0024,0.0003,-0.0025,-0.0047,-0.007,-0.0099,-0.0154,-0.0184,-0.0243,-0.0241,-0.0255,-0.0315,-0.0312,-0.0322,-0.0346,-0.0355,-0.0372,-0.0382,-0.0273,-0.0274,-0.0275,-0.0275,0,0,0.0093,0.007,0.0068,0.0048,0.0018,-0.0002,-0.0025,-0.0076,-0.0104,-0.0133,-0.0182,-0.0226,-0.0256,-0.0286,-0.0307,-0.0346,-0.0385,-0.0351,-0.0355,-0.0369,-0.0478,-0.0421,-0.0427,-0.0401,-0.0403,-0.0405,-0.0459,0,0.0093,0.0073,0.0065,0.0037,0.0012,-0.002,-0.0038,-0.0081,-0.0115,-0.0156,-0.0212,-0.0249,-0.0268,-0.0285,-0.0335,-0.0371,-0.0416,-0.0369,-0.0471,-0.0474,-0.0423,-0.0439,-0.0412,-0.0467,-0.0469,-0.0471,-0.0472,0,0.0094,0.0076,0.0045,0.0005,-0.0007,-0.0018,-0.0081,-0.0098,-0.0159,-0.0182,-0.0247,-0.0278,-0.0348,-0.0345,-0.0454,-0.042,-0.0461,-0.0485,-0.0487,-0.0469,-0.0438,-0.0467,-0.0491,-0.049,-0.0488,-0.0487,-0.0486,0,0.008,0.0055,0.0022,0.001,-0.0025,-0.005,-0.0069,-0.012,-0.012,-0.0201,-0.0196,-0.0312,-0.032,-0.0424,-0.0467,-0.047,-0.0562,-0.0573,-0.0569,-0.0563,-0.0618,-0.0612,-0.0672,-0.0671,-0.0671,-0.0671,-0.0671,0,0.0062,0.0036,0.0014,-0.0006,-0.0017,-0.0058,-0.0071,-0.0102,-0.0128,-0.011,-0.0207,-0.0197,-0.0336,-0.039,-0.0477,-0.0539,-0.058,-0.0587,-0.0587,-0.059,-0.0581,-0.0622,-0.0616,-0.0673,-0.0673,-0.0672,-0.0672,0,0.0052,0.0025,0.0007,-0.0024,-0.0024,-0.003,-0.0013,-0.0009,-0.0052,-0.0026,-0.0037,-0.0102,-0.0179,-0.0307,-0.0439,-0.0505,-0.06,-0.0614,-0.0583,-0.0577,-0.0569,-0.056,-0.0643,-0.0641,-0.064,-0.0639,-0.0639,0,0.0048,0.003,0.0029,0.0056,0.0049,0.005,0.0076,0.004,0.0068,0.0057,0.009,0.0018,-0.0038,-0.0178,-0.0338,-0.0529,-0.0547,-0.0602,-0.063,-0.0582,-0.0573,-0.0565,-0.0558,-0.0637,-0.0637,-0.0636,-0.0636,0,0.0066,0.0066,0.0074,0.0121,0.0151,0.0189,0.0215,0.0246,0.0226,0.0201,0.0217,0.0119,0.0043,-0.0124,-0.0263,-0.04,-0.0582,-0.0592,-0.0596,-0.0623,-0.0576,-0.0566,-0.056,-0.0633,-0.0633,-0.0633,-0.0634,0,0.0118,0.0142,0.0162,0.0201,0.0254,0.0302,0.0308,0.0344,0.0353,0.033,0.0348,0.0221,0.014,-0.0052,-0.018,-0.0317,-0.0366,-0.0417,-0.0432,-0.0438,-0.0368,-0.0278,-0.0255,0,0,0,0,0,0.0156,0.0183,0.0244,0.0282,0.0339,0.0349,0.0399,0.04,0.0388,0.0424,0.038,0.0304,0.0114,0.0027,-0.01,-0.0184,-0.0406,-0.0338,-0.0476,-0.0612,-0.0616,-0.0566,0,0,0,0,0,0,0.0189,0.0241,0.0251,0.0333,0.0372,0.0425,0.0451,0.0451,0.0463,0.044,0.0347,0.0277,0.009,0.0186,-0.0101,-0.0146,-0.0248,-0.0441,-0.0443,-0.061,-0.0613,-0.0617,-0.0566,0,0,0,0,0]}]]